Shreveport, LA

11:44 AM CDT on March 29, 2017 (GMT -0500)
Shreveport Regional

Weather History for KSHV - November, 2011

Change the Weather History Date:

Thursday, November 3, 2011

  Actual Average Record
Temperature  
Mean Temperature 53 °F 61 °F  
Max Temperature 62 °F 72 °F 86 °F (2016)
Min Temperature 44 °F 49 °F 22 °F (1951)
Degree Days  
Heating Degree Days 12 6  
Month to date heating degree days 16 17  
Since 1 July heating degree days 84 103  
Cooling Degree Days 0 2  
Month to date cooling degree days 1 6  
Year to date cooling degree days 3337 2455  
Growing Degree Days 4 (Base 50)    
Moisture  
Dew Point 35 °F    
Average Humidity 55    
Maximum Humidity 86    
Minimum Humidity 24    
Precipitation  
Precipitation 0.00 in 0.17 in 2.79 in (1954)
Month to date precipitation 0.33 0.49  
Year to date precipitation 21.27 42.60  
Snow  
Snow 0.00 in - - ()
Month to date snowfall 0.0  
Since 1 July snowfall 0.0  
Since 1 September snowfall 0.0  
Snow Depth 0.00 in    
Sea Level Pressure  
Sea Level Pressure 30.19 in    
Wind  
Wind Speed 14 mph (NW)    
Max Wind Speed 25 mph    
Max Gust Speed 32 mph    
Visibility 10 miles    
Events Rain    
T = Trace of Precipitation, MM = Missing Value Source: NWS Daily Summary

Daily Weather History Graph

Daily Weather History Graph

Search for Another Location

Airport or City:

Trip Planner

Search our weather history database for the weather conditions in past years. The results will help you decide how hot, cold, wet, or windy it might be!

Date:

Astronomy

Nov. 03, 2011 Rise Set
Actual Time 7:34 AM CDT 6:23 PM CDT
Civil Twilight 7:08 AM CDT 6:48 PM CDT
Nautical Twilight 6:39 AM CDT 7:17 PM CDT
Astronomical Twilight 6:10 AM CDT 7:46 PM CDT
Moon 2:27 PM CDT (11/3) 1:09 AM CDT (11/3)
Length of Visible Light 11h 40m
Length of Day
10h 49m
First Quarter, 60% of the Moon is Illuminated
Nov 3
First Quarter
Nov 10
Full
Nov 18
Last Quarter
Nov 25
New
Dec 2
First Quarter

Hourly Weather History & Observations

Time (CDT) Temp. Windchill Dew Point Humidity Pressure Visibility Wind Dir Wind Speed Gust Speed Precip Events Conditions
12:41 AM 55.4 °F - 53.6 °F 94% 30.10 in 7.0 mi WNW 16.1 mph - 0.10 in Rain Light Rain
12:54 AM 55.4 °F - 53.6 °F 94% 30.11 in 7.0 mi NW 18.4 mph 25.3 mph 0.10 in Rain Light Rain
12:56 AM 55.4 °F - 51.8 °F 88% 30.11 in 7.0 mi NW 19.6 mph 25.3 mph N/A Rain Light Rain
1:56 AM 52.0 °F - 46.0 °F 80% 30.13 in 10.0 mi WNW 18.4 mph 27.6 mph 0.00 in   Overcast
2:21 AM 51.8 °F - 44.6 °F 76% 30.15 in 10.0 mi WNW 12.7 mph 24.2 mph N/A   Overcast
2:56 AM 50.0 °F - 43.0 °F 77% 30.15 in 10.0 mi WNW 13.8 mph 21.9 mph N/A   Overcast
3:39 AM 48.2 °F - 39.2 °F 71% 30.17 in 10.0 mi NW 18.4 mph 28.8 mph N/A   Mostly Cloudy
3:56 AM 48.9 °F - 39.0 °F 69% 30.16 in 10.0 mi NW 18.4 mph 25.3 mph N/A   Mostly Cloudy
4:09 AM 48.2 °F - 39.2 °F 71% 30.17 in 10.0 mi NW 13.8 mph - N/A   Overcast
4:56 AM 48.0 °F - 39.9 °F 74% 30.17 in 10.0 mi NW 9.2 mph - N/A   Overcast
5:43 AM 46.4 °F 38.5 °F 37.4 °F 71% 30.19 in 10.0 mi WNW 21.9 mph 28.8 mph N/A   Mostly Cloudy
5:56 AM 46.9 °F - 36.0 °F 66% 30.19 in 10.0 mi WNW 18.4 mph 27.6 mph N/A   Mostly Cloudy
6:56 AM 46.0 °F 39.9 °F 36.0 °F 68% 30.21 in 10.0 mi NW 13.8 mph 23.0 mph N/A   Scattered Clouds
7:56 AM 46.0 °F 40.6 °F 36.0 °F 68% 30.22 in 10.0 mi WNW 11.5 mph - N/A   Scattered Clouds
8:56 AM 48.0 °F - 35.1 °F 61% 30.25 in 10.0 mi NW 16.1 mph 27.6 mph N/A   Partly Cloudy
9:56 AM 50.0 °F - 35.1 °F 57% 30.25 in 10.0 mi WNW 15.0 mph 26.5 mph N/A   Partly Cloudy
10:56 AM 53.1 °F - 35.1 °F 50% 30.25 in 10.0 mi NW 17.3 mph 24.2 mph N/A   Partly Cloudy
11:56 AM 55.0 °F - 35.1 °F 47% 30.25 in 10.0 mi NNW 15.0 mph 26.5 mph N/A   Partly Cloudy
12:56 PM 57.2 °F - 33.8 °F 41% 30.22 in 10.0 mi NNW 18.4 mph 28.8 mph N/A   Partly Cloudy
1:56 PM 59.0 °F - 30.2 °F 34% 30.20 in 10.0 mi NNW 17.3 mph 27.6 mph N/A   Clear
2:56 PM 61.0 °F - 28.0 °F 29% 30.18 in 10.0 mi NW 20.7 mph 27.6 mph N/A   Clear
3:56 PM 61.0 °F - 25.0 °F 25% 30.17 in 10.0 mi NW 19.6 mph 27.6 mph N/A   Clear
4:56 PM 61.0 °F - 24.1 °F 24% 30.16 in 10.0 mi NW 18.4 mph - N/A   Clear
5:56 PM 59.0 °F - 23.0 °F 25% 30.17 in 10.0 mi NW 12.7 mph - N/A   Clear
6:56 PM 55.0 °F - 25.0 °F 31% 30.19 in 10.0 mi WNW 10.4 mph - N/A   Clear
7:56 PM 53.1 °F - 25.0 °F 34% 30.20 in 10.0 mi WNW 9.2 mph - N/A   Clear
8:56 PM 50.0 °F - 26.1 °F 39% 30.20 in 10.0 mi WNW 8.1 mph - N/A   Clear
9:56 PM 48.0 °F - 26.1 °F 42% 30.22 in 10.0 mi NW 5.8 mph - N/A   Clear
10:56 PM 46.0 °F 41.9 °F 27.0 °F 47% 30.21 in 10.0 mi NW 8.1 mph - N/A   Clear
11:56 PM 46.0 °F 41.9 °F 28.0 °F 50% 30.21 in 10.0 mi NW 8.1 mph - N/A   Clear